This is the latest recevied weather packets stored in our database for station/object KO4ZGL-13. If no packets are shown the sender has not sent any weather packets the latest 10 day(s).
| Time | Temp. | Humidity | Pressure | Rain* | Wind** | Luminosity | Snow |
|---|---|---|---|---|---|---|---|
| 1788031784 | 27.78° C | 94% | 1020.5 hPa | 0 mm | - | 90 W/m² | - |
| 1788031479 | 27.78° C | 94% | 1020.6 hPa | 0 mm | - | 84 W/m² | - |
| 1788031174 | 27.78° C | 94% | 1020.5 hPa | 0 mm | - | 79 W/m² | - |
| 1788030873 | 27.78° C | 94% | 1020.5 hPa | 0 mm | - | 69 W/m² | - |
| 1788030572 | 27.78° C | 93% | 1020.5 hPa | 0 mm | - | 59 W/m² | - |
| 1788030267 | 27.78° C | 92% | 1020.7 hPa | 0 mm | - | 58 W/m² | - |
| 1788029963 | 28.33° C | 91% | 1020.5 hPa | 0 mm | - | 79 W/m² | - |
| 1788029658 | 28.33° C | 89% | 1020.9 hPa | 0 mm | - | 97 W/m² | - |
| 1788029353 | 28.89° C | 88% | 1021 hPa | 0 mm | - | 101 W/m² | - |
| 1788029051 | 29.44° C | 86% | 1020.8 hPa | 0 mm | - | 126 W/m² | - |
| 1788028746 | 28.89° C | 83% | 1020.7 hPa | 0 mm | - | 162 W/m² | - |
| 1788028440 | 29.44° C | 84% | 1021 hPa | 0 mm | - | 203 W/m² | - |
| 1788028136 | 29.44° C | 84% | 1021 hPa | 0 mm | - | 218 W/m² | - |
| 1788027830 | 30° C | 84% | 1020.8 hPa | 0 mm | - | 254 W/m² | - |
| 1788027524 | 30° C | 83% | 1020.9 hPa | 0 mm | - | 351 W/m² | - |
| 1788027219 | 29.44° C | 82% | 1021.1 hPa | 0 mm | - | 293 W/m² | - |
| 1788026918 | 29.44° C | 82% | 1021.1 hPa | 0 mm | - | 241 W/m² | - |
| 1788026614 | 30° C | 82% | 1021.1 hPa | 0 mm | - | 812 W/m² | - |
| 1788026308 | 29.44° C | 85% | 1021 hPa | 0 mm | - | 760 W/m² | - |
| 1788026004 | 28.89° C | 84% | 1021.3 hPa | 0 mm | - | 759 W/m² | - |
| 1788025703 | 28.89° C | 85% | 1021.4 hPa | 0 mm | - | 515 W/m² | - |
| 1788025402 | 28.89° C | 87% | 1021.3 hPa | 0 mm | - | 476 W/m² | - |
| 1788025098 | 28.89° C | 88% | 1021.4 hPa | 0 mm | - | 340 W/m² | - |
| 1788024792 | 28.33° C | 89% | 1021.7 hPa | 0 mm | - | 298 W/m² | - |
| 1788024489 | 27.78° C | 88% | 1021.6 hPa | 0 mm | - | 302 W/m² | - |
* Rain latest hour (hover to see other rain measurements)
** Current wind speed in m/s (hover to see current wind gust speed)